When you browse on this site, cookies collect data to enhance your experience and personalize the content and advertising you see.
Visit our Privacy Policy to learn more. By continuing to use the site, you agree to this use of cookies and data.
  • In Österreich
  • Länderverzeichnis
  • Für 7 Tage
  • Wassertemperatur
  • Wetterkarte
  • News
  • Widgets
  • user-avatar
    Anmelden

    Stündliche Wetter My Tho

    Heute, 25 Januar, Samstag

    Zeit Temperatur Niederschläge Wind Luftdruck Luftfeuchtigkeit
    00:00 +25°C° 0 mm 3 m/S 758 mmHg 85%
    01:00 +25°C° 0 mm 2 m/S 758 mmHg 85%
    02:00 +25°C° 0 mm 2 m/S 758 mmHg 85%
    03:00 +25°C° 0 mm 2 m/S 758 mmHg 86%
    04:00 +25°C° 0 mm 2 m/S 757 mmHg 86%
    05:00 +25°C° 0 mm 2 m/S 757 mmHg 86%
    06:00 +26°C° 0 mm 2 m/S 758 mmHg 85%
    07:00 +26°C° 0 mm 3 m/S 758 mmHg 85%
    08:00 +28°C° 0 mm 3 m/S 758 mmHg 76%
    09:00 +30°C° 0 mm 4 m/S 759 mmHg 66%
    10:00 +33°C° 0 mm 4 m/S 759 mmHg 57%
    11:00 +34°C° 0 mm 4 m/S 758 mmHg 53%
    12:00 +35°C° 0 mm 5 m/S 757 mmHg 50%
    13:00 +35°C° 0 mm 5 m/S 757 mmHg 49%
    14:00 +35°C° 0 mm 5 m/S 756 mmHg 50%
    15:00 +34°C° 0 mm 4 m/S 756 mmHg 52%
    16:00 +33°C° 0 mm 4 m/S 756 mmHg 53%
    17:00 +30°C° 0 mm 4 m/S 756 mmHg 63%
    18:00 +28°C° 0 mm 3 m/S 756 mmHg 73%
    19:00 +26°C° 0 mm 2 m/S 757 mmHg 82%
    20:00 +25°C° 0 mm 2 m/S 757 mmHg 86%
    21:00 +25°C° 0 mm 2 m/S 758 mmHg 91%
    22:00 +24°C° 0 mm 1 m/S 758 mmHg 96%
    23:00 +24°C° 0 mm 1 m/S 758 mmHg 96%

    Morgen, 26 Januar, Sonntag

    Zeit Temperatur Niederschläge Wind Luftdruck Luftfeuchtigkeit
    00:00 +24°C° 0 mm 1 m/S 758 mmHg 97%
    01:00 +23°C° 0 mm 1 m/S 758 mmHg 97%
    02:00 +23°C° 0 mm 1 m/S 757 mmHg 97%
    03:00 +21°C° 0 mm 0 m/S 757 mmHg 97%
    04:00 +21°C° 0 mm 0 m/S 757 mmHg 97%
    05:00 +22°C° 0 mm 0 m/S 757 mmHg 96%
    06:00 +24°C° 0 mm 1 m/S 758 mmHg 95%
    07:00 +24°C° 0 mm 1 m/S 758 mmHg 94%
    08:00 +27°C° 0 mm 1 m/S 758 mmHg 80%
    09:00 +30°C° 0 mm 1 m/S 759 mmHg 66%
    10:00 +34°C° 0 mm 2 m/S 759 mmHg 52%
    11:00 +35°C° 0 mm 2 m/S 758 mmHg 48%
    12:00 +36°C° 0 mm 2 m/S 757 mmHg 44%
    13:00 +37°C° 0 mm 3 m/S 756 mmHg 40%
    14:00 +36°C° 0 mm 3 m/S 756 mmHg 42%
    15:00 +35°C° 0 mm 4 m/S 755 mmHg 44%
    16:00 +34°C° 0 mm 4 m/S 754 mmHg 47%
    17:00 +31°C° 0 mm 3 m/S 755 mmHg 57%
    18:00 +29°C° 0 mm 3 m/S 755 mmHg 66%
    19:00 +26°C° 0 mm 2 m/S 756 mmHg 76%
    20:00 +25°C° 0 mm 2 m/S 756 mmHg 82%
    21:00 +25°C° 0 mm 2 m/S 757 mmHg 87%
    22:00 +24°C° 0 mm 1 m/S 758 mmHg 93%
    23:00 +24°C° 0 mm 1 m/S 757 mmHg 94%

    übermorgen, 27 Januar, Montag

    Zeit Temperatur Niederschläge Wind Luftdruck Luftfeuchtigkeit
    00:00 +23°C° 0 mm 1 m/S 757 mmHg 94%
    01:00 +23°C° 0 mm 1 m/S 757 mmHg 95%
    02:00 +23°C° 0 mm 1 m/S 757 mmHg 96%
    03:00 +23°C° 0 mm 1 m/S 757 mmHg 96%
    04:00 +23°C° 0 mm 1 m/S 756 mmHg 96%
    05:00 +23°C° 0 mm 1 m/S 757 mmHg 94%
    06:00 +24°C° 0 mm 1 m/S 757 mmHg 92%
    07:00 +22°C° 0 mm 0 m/S 758 mmHg 90%
    08:00 +27°C° 0 mm 2 m/S 758 mmHg 78%
    09:00 +29°C° 0 mm 3 m/S 758 mmHg 66%
    10:00 +33°C° 0 mm 4 m/S 758 mmHg 53%
    11:00 +34°C° 0 mm 4 m/S 758 mmHg 51%
    12:00 +34°C° 0 mm 4 m/S 757 mmHg 48%
    13:00 +35°C° 0 mm 5 m/S 756 mmHg 46%
    14:00 +34°C° 0 mm 4 m/S 756 mmHg 48%
    15:00 +34°C° 0 mm 4 m/S 755 mmHg 51%
    16:00 +33°C° 0 mm 4 m/S 755 mmHg 53%
    17:00 +30°C° 0 mm 4 m/S 755 mmHg 64%
    18:00 +28°C° 0 mm 3 m/S 756 mmHg 75%
    19:00 +26°C° 0 mm 2 m/S 756 mmHg 86%
    20:00 +25°C° 0 mm 2 m/S 757 mmHg 87%
    21:00 +25°C° 0 mm 2 m/S 757 mmHg 89%
    22:00 +25°C° 0 mm 2 m/S 758 mmHg 90%
    23:00 +25°C° 0 mm 2 m/S 758 mmHg 91%

    28 Januar, Dienstag

    Zeit Temperatur Niederschläge Wind Luftdruck Luftfeuchtigkeit
    00:00 +25°C° 0 mm 2 m/S 757 mmHg 91%
    01:00 +24°C° 0 mm 2 m/S 757 mmHg 91%
    02:00 +24°C° 0 mm 2 m/S 757 mmHg 93%
    03:00 +24°C° 0 mm 1 m/S 756 mmHg 95%
    04:00 +23°C° 0 mm 1 m/S 756 mmHg 96%
    05:00 +24°C° 0 mm 1 m/S 757 mmHg 95%
    06:00 +24°C° 0 mm 1 m/S 757 mmHg 93%
    07:00 +24°C° 0 mm 1 m/S 758 mmHg 92%
    08:00 +27°C° 0 mm 2 m/S 758 mmHg 81%
    09:00 +29°C° 0 mm 2 m/S 758 mmHg 69%
    10:00 +33°C° 0 mm 3 m/S 759 mmHg 58%
    11:00 +33°C° 0 mm 3 m/S 758 mmHg 55%
    12:00 +34°C° 0 mm 3 m/S 757 mmHg 51%
    13:00 +35°C° 0 mm 4 m/S 757 mmHg 48%
    14:00 +34°C° 0 mm 4 m/S 756 mmHg 49%
    15:00 +34°C° 0 mm 4 m/S 756 mmHg 51%
    16:00 +33°C° 0 mm 4 m/S 755 mmHg 52%
    17:00 +30°C° 0 mm 3 m/S 756 mmHg 61%
    18:00 +28°C° 0 mm 3 m/S 756 mmHg 69%
    19:00 +26°C° 0 mm 3 m/S 756 mmHg 78%
    20:00 +25°C° 0 mm 3 m/S 757 mmHg 82%
    21:00 +25°C° 0 mm 2 m/S 758 mmHg 86%
    22:00 +24°C° 0 mm 2 m/S 758 mmHg 90%
    23:00 +24°C° 0 mm 2 m/S 758 mmHg 91%

    29 Januar, Mittwoch

    Zeit Temperatur Niederschläge Wind Luftdruck Luftfeuchtigkeit
    00:00 +23°C° 0 mm 2 m/S 758 mmHg 92%
    01:00 +23°C° 0 mm 1 m/S 758 mmHg 94%
    02:00 +23°C° 0 mm 1 m/S 758 mmHg 94%
    03:00 +23°C° 0 mm 1 m/S 758 mmHg 95%
    04:00 +21°C° 0 mm 0 m/S 758 mmHg 96%
    05:00 +21°C° 0 mm 0 m/S 758 mmHg 94%
    06:00 +21°C° 0 mm 0 m/S 758 mmHg 93%
    07:00 +22°C° 0 mm 0 m/S 759 mmHg 92%
    08:00 +26°C° 0 mm 1 m/S 759 mmHg 79%
    09:00 +29°C° 0 mm 2 m/S 759 mmHg 67%
    10:00 +32°C° 0 mm 2 m/S 760 mmHg 55%
    11:00 +34°C° 0 mm 3 m/S 759 mmHg 51%
    12:00 +35°C° 0 mm 3 m/S 758 mmHg 46%
    13:00 +36°C° 0 mm 3 m/S 757 mmHg 42%
    14:00 +35°C° 0 mm 3 m/S 757 mmHg 44%
    15:00 +35°C° 0 mm 4 m/S 756 mmHg 46%
    16:00 +34°C° 0 mm 4 m/S 756 mmHg 48%
    17:00 +31°C° 0 mm 3 m/S 756 mmHg 59%
    18:00 +28°C° 0 mm 3 m/S 756 mmHg 70%
    19:00 +26°C° 0 mm 3 m/S 757 mmHg 81%
    20:00 +26°C° 0 mm 3 m/S 757 mmHg 83%
    21:00 +25°C° 0 mm 3 m/S 758 mmHg 86%
    22:00 +25°C° 0 mm 3 m/S 758 mmHg 89%
    23:00 +25°C° 0 mm 2 m/S 758 mmHg 90%

    30 Januar, Donnerstag

    Zeit Temperatur Niederschläge Wind Luftdruck Luftfeuchtigkeit
    00:00 +25°C° 0 mm 2 m/S 758 mmHg 92%
    01:00 +25°C° 0 mm 2 m/S 758 mmHg 93%
    02:00 +24°C° 0 mm 1 m/S 758 mmHg 94%
    03:00 +24°C° 0 mm 1 m/S 758 mmHg 94%
    04:00 +24°C° 0 mm 1 m/S 758 mmHg 94%
    05:00 +25°C° 0 mm 1 m/S 758 mmHg 92%
    06:00 +25°C° 0 mm 1 m/S 758 mmHg 90%
    07:00 +24°C° 0 mm 0 m/S 759 mmHg 87%
    08:00 +28°C° 0 mm 1 m/S 759 mmHg 76%
    09:00 +30°C° 0 mm 2 m/S 759 mmHg 65%
    10:00 +32°C° 0 mm 2 m/S 759 mmHg 54%
    11:00 +35°C° 0 mm 2 m/S 759 mmHg 48%
    12:00 +36°C° 0 mm 2 m/S 758 mmHg 43%
    13:00 +37°C° 0 mm 2 m/S 757 mmHg 37%
    14:00 +36°C° 0 mm 2 m/S 757 mmHg 41%
    15:00 +35°C° 0 mm 2 m/S 756 mmHg 44%
    16:00 +34°C° 0 mm 2 m/S 756 mmHg 48%
    17:00 +31°C° 0 mm 3 m/S 756 mmHg 59%
    18:00 +29°C° 0 mm 3 m/S 756 mmHg 70%
    19:00 +27°C° 0 mm 4 m/S 757 mmHg 82%
    20:00 +26°C° 0 mm 3 m/S 757 mmHg 82%
    21:00 +26°C° 0 mm 3 m/S 758 mmHg 82%
    22:00 +26°C° 0 mm 3 m/S 758 mmHg 83%
    23:00 +26°C° 0.1 mm 3 m/S 758 mmHg 83%
    Mehr zeigen